Home > Weather > Currie > Past weeks

Flag for Australia Weather for the Past 2 Weeks in Currie, Tasmania, Australia

Now
64 °F

Mild.


Feels Like: 64 °F
Forecast: 57 / 65 °F
Wind: 20 mph from North

Location: Cape Grim B. A. P. S.*

Current Time: Apr 30, 2016 at 12:23:24 PM

Latest Report: Apr 30, 2016 at 11:00 AM


Visibility: N/A

Pressure: 29.86 "Hg

Humidity: 85%

Dew Point: 60 °F

Location of CurrieLocation

Historic Weather in Currie — Graph

°F

Currie Temperature Yesterday

Maximum temperature yesterday: 62 °F (at 10:00 AM)
Minimum temperature yesterday: 59 °F (at 9:00 PM)
Average temperature yesterday: 60 °F

High & Low Weather Summary for the Past Weeks

 TemperatureHumidityPressure
High69 °F (Apr 27, 12:00 PM)98% (Apr 19, 9:00 AM)30.44 "Hg (Apr 19, 9:00 AM)
Low50 °F (Apr 17, 4:00 AM)43% (Apr 16, 3:00 PM)29.83 "Hg (Apr 29, 3:00 PM)
Average59 °F79%30.14 "Hg
* Reported Apr 15 10:00 AM — Apr 30 10:00 AM, Currie, Weather by CustomWeather, © 2016

Note: Actual official high and low records may vary slightly from our data, if they occured in-between our weather recording intervals... More about our weather records

Advertising

Currie Weather History for the Previous 24 Hours

Scroll right to see more
 ConditionsComfort  
Time TempWeatherWind HumidityBarometerVisibility
10:00 AM
Sat, Apr 30
63 °FMild.22 mph91%29.87 "HgN/A
9:00 AM62 °FCool.22 mph90%29.87 "HgN/A
7:00 AM60 °FCool.15 mph93%29.86 "HgN/A
6:00 AM60 °FCool.17 mph93%29.86 "HgN/A
5:00 AM60 °FCool.16 mph94%29.86 "HgN/A
4:00 AM60 °FCool.16 mph92%29.86 "HgN/A
3:00 AM60 °FCool.16 mph93%29.86 "HgN/A
2:00 AM60 °FCool.16 mph94%29.87 "HgN/A
1:00 AM60 °FCool.14 mph92%29.87 "HgN/A
12:00 AM60 °FCool.14 mph92%29.88 "HgN/A
11:00 PM
Fri, Apr 29
60 °FCool.14 mph89%29.89 "HgN/A
10:00 PM60 °FCool.14 mph89%29.89 "HgN/A
9:00 PM59 °FCool.10 mph91%29.88 "HgN/A
8:00 PM59 °FCool.13 mph90%29.87 "HgN/A
7:00 PM59 °FCool.13 mph92%29.86 "HgN/A
6:00 PM60 °FCool.14 mph94%29.85 "HgN/A
5:00 PM60 °FCool.21 mph96%29.84 "HgN/A
4:00 PM60 °FCool.23 mph96%29.83 "HgN/A
3:00 PM60 °FFog.22 mph96%29.83 "HgN/A
2:00 PM61 °FCool.25 mph93%29.83 "HgN/A
Weather by CustomWeather, © 2016

See weather overviewHow to use our weather pages